This demonstration page uses our WeatherBlox Daily Observations layout. Learn more.

36.17497, -115.13722

Hourly Observations for September 15, 2019

Temp ( °F °C ) Dew Point ( °F °C ) Humidity (%) Winds ( mph kmh ) Pressure ( in mb ) Visibility ( mi km ) Precip ( " mm )
12:53 am 00:53 Clear 77 25 33 0.6 20 20 NW 5 7 29.88 1012 10 16.09344 0 0
1:53 am 01:53 Clear 77 25 33 0.6 20 20 Calm 29.88 1012 10 16.09344 0 0
2:53 am 02:53 Clear 75 23.9 32 0 21 21 NW 7 11 29.88 1012 10 16.09344 0 0
3:53 am 03:53 Clear 74 23.3 32 0 21 21 Calm 29.88 1012 10 16.09344 0 0
4:53 am 04:53 Clear 73 22.8 35 1.7 25 25 NW 3 6 29.85 1011 10 16.09344 0 0
5:53 am 05:53 Clear 73 22.8 37 2.8 27 27 NNW 3 6 29.88 1012 10 16.09344 0 0
6:53 am 06:53 Sunny 71 21.7 38 3.3 30 30 NW 5 7 29.91 1013 10 16.09344 0 0
7:53 am 07:53 Sunny 77 25 46 7.8 33 33 NE 5 7 29.91 1013 10 16.09344 0 0
8:53 am 08:53 Sunny 83 28.3 48 8.9 30 30 ENE 7 11 29.91 1013 10 16.09344 0 0
9:53 am 09:53 Sunny 86 30 45 7.2 24 24 ESE 7 11 29.91 1013 10 16.09344 0 0
10:53 am 10:53 Sunny 90 32.2 45 7.2 21 21 SE 7 11 29.91 1013 10 16.09344 0 0
11:53 am 11:53 Sunny 93 33.9 46 7.8 20 20 SE 9 15 29.85 1011 10 16.09344 0 0
12:53 pm 12:53 Sunny 96 35.6 41 5 15 15 SE 9 15 29.83 1010 10 16.09344 0 0
1:53 pm 13:53 Sunny 99 37.2 34 1.1 10 10 SSE 12 19 29.8 1009 10 16.09344 0 0
2:53 pm 14:53 Sunny 98 36.7 35 1.7 11 11 S 6 9 29.77 1008 10 16.09344 0 0
3:53 pm 15:53 Sunny 99 37.2 36 2.2 11 11 S 7 11 29.74 1007 10 16.09344 0 0
4:53 pm 16:53 Sunny 98 36.7 42 5.6 15 15 WSW 12 19 29.74 1007 10 16.09344 0 0
5:53 pm 17:53 Sunny 97 36.1 39 3.9 13 13 SW 12 19 29.71 1006 10 16.09344 0 0
6:53 pm 18:53 Clear 94 34.4 42 5.6 17 17 WSW 13 20 29.74 1007 10 16.09344 0 0
7:53 pm 19:53 Clear 93 33.9 42 5.6 17 17 SW 8 13 29.74 1007 10 16.09344 0 0
8:53 pm 20:53 Clear 91 32.8 45 7.2 20 20 S 12 19 29.74 1007 10 16.09344 0 0
9:53 pm 21:53 Clear 90 32.2 46 7.8 22 22 S 9 15 29.74 1007 10 16.09344 0 0
10:53 pm 22:53 Clear 89 31.7 40 4.4 18 18 SSW 14 22 29.74 1007 10 16.09344 0 0
11:53 pm 23:53 Clear 87 30.6 27 -2.8 11 11 S 9 15 29.77 1008 10 16.09344 0 0

Powered by AerisWeather